Starlink 32324

operational
NORAD ID: 61863 Int'l Des: 2024-202 Owner: SPXS Country: US Constellation: starlink
LEOCIRCULAR

About Starlink 32324

Description loading...

Live Position

Loading 3D Globe...

Upcoming Passes

Altitude History

Altitude vs Time

uPlot chart will show altitude changes over time

Two-Line Element Set

1 61863U 24202U 25305.52256384 -.00002084 00000-0 -66286-4 0 9992
2 61863 42.9994 242.0221 0000701 277.4290 82.6482 15.27556157 55728
Epoch: Nov 1, 2025 • Age: 15 hours

Current Status

Altitude 493.2 km
Velocity 7.62 km/s
Sub-Earth Point -36.20°S, 85.79°E
Launch Date Nov 7, 2024
Age 0.9 years
Type internet

Technical Details

Classification Payload
Mass 730.00 kg
Dry Mass 700.00 kg
Total Mass 730.00 kg
Length 0.30 m
Diameter 4.10 m
Span 29.00 m
Shape Box + pan
Manufacturer SPXS
Bus Type Starlink V2M
Phase Status In Orbit
Owner/State SPXS/US

Large Constellations

Loading constellations...